Location: ??????????
(54.8537°N, 38.8755°E)
Time: 04:13:34
(UTC+00:00)

Vanguard 2 Rocket - Pass Details

Date: 21 September 2024
Orbit: 553 x 3298 km, 32.9° (Epoch: 14 October)

Event Time Altitude Azimuth Distance (km) Brightness Sun altitude
Exits shadow 21:56:59 12° 126° (SE) 4,379 10.1 -34.3°
Drops below altitude 10° 21:58:30 10° 121° (ESE) 4,728 10.3 -34.3°
Sets 22:04:49 0° 107° (ESE) 6,296 11.2 -34.1°
